This is the latest recevied weather packets stored in our database for station/object OM4MO-10. If no packets are shown the sender has not sent any weather packets the latest 10 day(s).
| Time | Temp. | Humidity | Pressure | Rain* | Wind** | Luminosity | Snow |
|---|---|---|---|---|---|---|---|
| 1777651856 | 16.67° C | 44% | 1031.7 hPa | - | - | - | - |
| 1777650656 | 16.11° C | 45% | 1031.5 hPa | - | - | - | - |
| 1777649455 | 16.11° C | 46% | 1031.8 hPa | - | - | - | - |
| 1777648255 | 17.22° C | 42% | 1033.7 hPa | - | - | - | - |
| 1777647055 | 17.22° C | 41% | 1034.5 hPa | - | - | - | - |
| 1777645855 | 18.89° C | 38% | 1036.7 hPa | - | - | - | - |
| 1777644655 | 17.22° C | 39% | 1035.8 hPa | - | - | - | - |
| 1777643455 | 17.78° C | 41% | 1035.9 hPa | - | - | - | - |
| 1777642255 | 17.22° C | 41% | 1035.7 hPa | - | - | - | - |
| 1777641054 | 16.11° C | 42% | 1035.3 hPa | - | - | - | - |
| 1777639854 | 16.67° C | 41% | 1035.2 hPa | - | - | - | - |
| 1777638654 | 16.67° C | 42% | 1035.5 hPa | - | - | - | - |
| 1777637454 | 16.11° C | 42% | 1035.8 hPa | - | - | - | - |
| 1777636253 | 16.67° C | 42% | 1036.1 hPa | - | - | - | - |
| 1777635053 | 16.67° C | 41% | 1037.2 hPa | - | - | - | - |
| 1777633853 | 17.78° C | 42% | 1036.9 hPa | - | - | - | - |
| 1777632653 | 16.67° C | 42% | 1036.9 hPa | - | - | - | - |
| 1777631453 | 16.11° C | 43% | 1037.3 hPa | - | - | - | - |
| 1777630253 | 14.44° C | 46% | 1035.4 hPa | - | - | - | - |
| 1777629053 | 15.56° C | 44% | 1037.7 hPa | - | - | - | - |
| 1777627853 | 14.44° C | 47% | 1035.3 hPa | - | - | - | - |
| 1777626653 | 13.89° C | 42% | 1038.7 hPa | - | - | - | - |
| 1777625452 | 13.89° C | 42% | 1039 hPa | - | - | - | - |
| 1777624252 | 12.22° C | 44% | 1038.3 hPa | - | - | - | - |
| 1777623052 | 12.78° C | 45% | 1038.1 hPa | - | - | - | - |
* Rain since midnight (hover to see other rain measurements)
** Current wind speed in m/s (hover to see current wind gust speed)